Time,TemperatureF,DewpointF,PressureIn,WindDirection,WindDirectionDegrees,WindSpeedMPH,WindSpeedGustMPH,Humidity,HourlyPrecipIn,Conditions,Clouds,dailyrainin,SolarRadiationWatts/m^2,SoftwareType,DateUTC
2013-06-17 00:11:00,68.3,62.0,29.76,West,267,1.0,14.0,81,0.00,,,0.00,0,weatherlink.com 1.10,2013-06-17 04:11:00,
2013-06-17 00:26:00,68.9,62.0,29.76,West,267,2.0,12.0,78,0.00,,,0.00,0,weatherlink.com 1.10,2013-06-17 04:26:00,
2013-06-17 00:41:00,69.0,61.0,29.76,West,270,3.0,8.0,76,0.00,,,0.00,0,weatherlink.com 1.10,2013-06-17 04:41:00,
2013-06-17 00:56:00,69.0,61.0,29.77,West,260,7.0,11.0,75,0.00,,,0.00,0,weatherlink.com 1.10,2013-06-17 04:56:00,
2013-06-17 01:11:00,68.9,60.0,29.77,West,266,1.0,5.0,74,0.00,,,0.00,0,weatherlink.com 1.10,2013-06-17 05:11:00,
2013-06-17 01:26:00,68.5,60.0,29.78,West,264,3.0,5.0,75,0.00,,,0.00,0,weatherlink.com 1.10,2013-06-17 05:26:00,
2013-06-17 01:41:00,68.1,60.0,29.78,West,259,0.0,9.0,75,0.00,,,0.00,0,weatherlink.com 1.10,2013-06-17 05:41:00,
2013-06-17 01:57:00,67.7,60.0,29.78,West,261,1.0,9.0,76,0.00,,,0.00,0,weatherlink.com 1.10,2013-06-17 05:57:00,
2013-06-17 02:11:00,67.5,60.0,29.79,West,261,0.0,9.0,76,0.00,,,0.00,0,weatherlink.com 1.10,2013-06-17 06:11:00,
2013-06-17 02:26:00,67.3,60.0,29.80,West,265,4.0,6.0,76,0.00,,,0.00,0,weatherlink.com 1.10,2013-06-17 06:26:00,
2013-06-17 02:41:00,67.0,60.0,29.79,West,265,1.0,4.0,77,0.00,,,0.00,0,weatherlink.com 1.10,2013-06-17 06:41:00,
2013-06-17 02:56:00,66.7,59.0,29.80,West,265,0.0,3.0,77,0.00,,,0.00,0,weatherlink.com 1.10,2013-06-17 06:56:00,
2013-06-17 03:11:00,66.4,59.0,29.80,West,263,0.0,3.0,77,0.00,,,0.00,0,weatherlink.com 1.10,2013-06-17 07:11:00,
2013-06-17 03:26:00,66.3,60.0,29.80,WSW,247,5.0,7.0,80,0.00,,,0.00,0,weatherlink.com 1.10,2013-06-17 07:26:00,
2013-06-17 03:41:00,65.7,60.0,29.80,SW,234,2.0,8.0,82,0.00,,,0.00,0,weatherlink.com 1.10,2013-06-17 07:41:00,
2013-06-17 03:56:00,65.4,60.0,29.80,SW,235,3.0,8.0,82,0.00,,,0.00,0,weatherlink.com 1.10,2013-06-17 07:56:00,
2013-06-17 04:11:00,64.9,60.0,29.80,SW,234,4.0,7.0,84,0.00,,,0.00,0,weatherlink.com 1.10,2013-06-17 08:11:00,
2013-06-17 04:27:00,64.4,60.0,29.80,SW,233,6.0,9.0,85,0.00,,,0.00,0,weatherlink.com 1.10,2013-06-17 08:27:00,
2013-06-17 04:42:00,64.3,60.0,29.81,SW,233,1.0,5.0,85,0.00,,,0.00,0,weatherlink.com 1.10,2013-06-17 08:42:00,
2013-06-17 04:57:00,63.9,59.0,29.82,SW,233,0.0,5.0,85,0.00,,,0.00,0,weatherlink.com 1.10,2013-06-17 08:57:00,
2013-06-17 05:12:00,63.5,59.0,29.82,SW,233,1.0,4.0,85,0.00,,,0.00,5,weatherlink.com 1.10,2013-06-17 09:12:00,
2013-06-17 05:27:00,63.3,59.0,29.82,SW,233,5.0,7.0,86,0.00,,,0.00,12,weatherlink.com 1.10,2013-06-17 09:27:00,
2013-06-17 05:42:00,63.8,59.0,29.83,WSW,238,6.0,9.0,85,0.00,,,0.00,21,weatherlink.com 1.10,2013-06-17 09:42:00,
2013-06-17 05:57:00,64.2,60.0,29.83,SW,233,5.0,7.0,85,0.00,,,0.00,28,weatherlink.com 1.10,2013-06-17 09:57:00,
2013-06-17 06:12:00,64.4,60.0,29.83,WSW,238,1.0,10.0,84,0.00,,,0.00,35,weatherlink.com 1.10,2013-06-17 10:12:00,
2013-06-17 06:27:00,65.1,60.0,29.83,SW,234,5.0,10.0,83,0.00,,,0.00,60,weatherlink.com 1.10,2013-06-17 10:27:00,
2013-06-17 06:42:00,66.5,61.0,29.83,SW,231,3.0,9.0,82,0.00,,,0.00,200,weatherlink.com 1.10,2013-06-17 10:42:00,
2013-06-17 06:57:00,68.2,61.0,29.83,SW,231,3.0,7.0,79,0.00,,,0.00,246,weatherlink.com 1.10,2013-06-17 10:57:00,
2013-06-17 07:12:00,68.6,62.0,29.84,SW,220,5.0,8.0,78,0.00,,,0.00,294,weatherlink.com 1.10,2013-06-17 11:12:00,
2013-06-17 07:27:00,69.5,62.0,29.84,SW,221,7.0,8.0,78,0.00,,,0.00,338,weatherlink.com 1.10,2013-06-17 11:27:00,
2013-06-17 07:42:00,71.8,64.0,29.84,WSW,252,2.0,10.0,75,0.00,,,0.00,383,weatherlink.com 1.10,2013-06-17 11:42:00,
2013-06-17 07:57:00,74.4,64.0,29.84,WSW,257,3.0,12.0,71,0.00,,,0.00,432,weatherlink.com 1.10,2013-06-17 11:57:00,
2013-06-17 08:12:00,75.9,65.0,29.84,WSW,240,1.0,14.0,68,0.00,,,0.00,478,weatherlink.com 1.10,2013-06-17 12:12:00,
2013-06-17 08:27:00,76.9,65.0,29.84,WSW,257,7.0,15.0,67,0.00,,,0.00,522,weatherlink.com 1.10,2013-06-17 12:27:00,
2013-06-17 08:42:00,77.5,66.0,29.84,West,264,11.0,15.0,68,0.00,,,0.00,566,weatherlink.com 1.10,2013-06-17 12:42:00,
2013-06-17 08:58:00,78.9,66.0,29.84,WSW,242,5.0,13.0,64,0.00,,,0.00,608,weatherlink.com 1.10,2013-06-17 12:58:00,
2013-06-17 09:13:00,79.5,66.0,29.84,WNW,288,2.0,14.0,64,0.00,,,0.00,647,weatherlink.com 1.10,2013-06-17 13:13:00,
2013-06-17 09:28:00,80.2,66.0,29.83,WNW,286,3.0,15.0,62,0.00,,,0.00,682,weatherlink.com 1.10,2013-06-17 13:28:00,
2013-06-17 09:43:00,81.3,66.0,29.83,WSW,254,4.0,12.0,59,0.00,,,0.00,721,weatherlink.com 1.10,2013-06-17 13:43:00,
2013-06-17 09:58:00,81.7,66.0,29.83,WNW,288,5.0,15.0,59,0.00,,,0.00,763,weatherlink.com 1.10,2013-06-17 13:58:00,
2013-06-17 10:13:00,82.4,66.0,29.83,West,264,5.0,11.0,57,0.00,,,0.00,788,weatherlink.com 1.10,2013-06-17 14:13:00,
2013-06-17 10:28:00,82.7,66.0,29.83,West,265,7.0,17.0,57,0.00,,,0.00,810,weatherlink.com 1.10,2013-06-17 14:28:00,
2013-06-17 10:43:00,82.5,65.0,29.83,WSW,252,3.0,10.0,56,0.00,,,0.00,844,weatherlink.com 1.10,2013-06-17 14:43:00,
2013-06-17 10:58:00,83.5,66.0,29.82,WNW,290,3.0,14.0,56,0.00,,,0.00,858,weatherlink.com 1.10,2013-06-17 14:58:00,
2013-06-17 11:13:00,85.2,66.0,29.82,West,266,5.0,12.0,53,0.00,,,0.00,888,weatherlink.com 1.10,2013-06-17 15:13:00,
2013-06-17 11:28:00,86.0,65.0,29.81,WSW,240,3.0,15.0,49,0.00,,,0.00,904,weatherlink.com 1.10,2013-06-17 15:28:00,
2013-06-17 11:43:00,85.9,66.0,29.81,WSW,243,4.0,8.0,51,0.00,,,0.00,909,weatherlink.com 1.10,2013-06-17 15:43:00,
2013-06-17 11:58:00,86.7,65.0,29.81,NW,308,4.0,12.0,48,0.00,,,0.00,921,weatherlink.com 1.10,2013-06-17 15:58:00,
2013-06-17 12:13:00,86.6,64.0,29.81,West,272,3.0,10.0,47,0.00,,,0.00,299,weatherlink.com 1.10,2013-06-17 16:13:00,
2013-06-17 12:28:00,86.2,64.0,29.80,SW,221,7.0,13.0,48,0.00,,,0.00,940,weatherlink.com 1.10,2013-06-17 16:28:00,
2013-06-17 12:43:00,87.0,65.0,29.81,West,263,3.0,11.0,48,0.00,,,0.00,350,weatherlink.com 1.10,2013-06-17 16:43:00,
2013-06-17 12:58:00,87.6,62.0,29.80,West,265,14.0,16.0,43,0.00,,,0.00,83,weatherlink.com 1.10,2013-06-17 16:58:00,
2013-06-17 13:13:00,87.5,62.0,29.80,West,265,0.0,13.0,43,0.00,,,0.00,118,weatherlink.com 1.10,2013-06-17 17:13:00,
2013-06-17 13:28:00,87.9,63.0,29.80,WSW,247,4.0,10.0,44,0.00,,,0.00,214,weatherlink.com 1.10,2013-06-17 17:28:00,
2013-06-17 13:43:00,87.2,63.0,29.80,WNW,298,5.0,16.0,44,0.00,,,0.00,81,weatherlink.com 1.10,2013-06-17 17:43:00,
2013-06-17 13:58:00,87.6,62.0,29.79,SW,224,11.0,16.0,42,0.00,,,0.00,81,weatherlink.com 1.10,2013-06-17 17:58:00,
2013-06-17 14:13:00,87.4,62.0,29.79,SW,216,2.0,15.0,42,0.00,,,0.00,134,weatherlink.com 1.10,2013-06-17 18:13:00,
2013-06-17 14:28:00,86.6,61.0,29.78,WSW,238,9.0,16.0,42,0.00,,,0.00,69,weatherlink.com 1.10,2013-06-17 18:28:00,
2013-06-17 14:43:00,86.5,59.0,29.78,SW,228,14.0,23.0,40,0.00,,,0.00,79,weatherlink.com 1.10,2013-06-17 18:43:00,
2013-06-17 14:58:00,87.2,60.0,29.78,West,269,11.0,18.0,40,0.00,,,0.00,118,weatherlink.com 1.10,2013-06-17 18:58:00,
2013-06-17 15:13:00,87.2,62.0,29.78,SW,235,11.0,12.0,43,0.00,,,0.00,163,weatherlink.com 1.10,2013-06-17 19:13:00,
2013-06-17 15:28:00,87.4,62.0,29.78,West,260,2.0,21.0,43,0.00,,,0.00,148,weatherlink.com 1.10,2013-06-17 19:28:00,
2013-06-17 15:43:00,87.0,62.0,29.77,SW,219,7.0,16.0,43,0.00,,,0.00,134,weatherlink.com 1.10,2013-06-17 19:43:00,
2013-06-17 15:58:00,86.5,61.0,29.77,WSW,247,4.0,22.0,43,0.00,,,0.00,90,weatherlink.com 1.10,2013-06-17 19:58:00,
2013-06-17 16:13:00,85.1,62.0,29.77,WSW,237,8.0,17.0,46,0.00,,,0.00,144,weatherlink.com 1.10,2013-06-17 20:13:00,
2013-06-17 16:28:00,84.8,62.0,29.76,WSW,252,5.0,17.0,46,0.00,,,0.00,123,weatherlink.com 1.10,2013-06-17 20:28:00,
2013-06-17 16:43:00,85.1,64.0,29.76,West,259,2.0,10.0,49,0.00,,,0.00,39,weatherlink.com 1.10,2013-06-17 20:43:00,
2013-06-17 16:58:00,82.1,62.0,29.78,North,360,5.0,11.0,50,0.00,,,0.00,14,weatherlink.com 1.10,2013-06-17 20:58:00,
2013-06-17 17:13:00,76.0,65.0,29.78,North,355,9.0,14.0,69,0.01,,,0.01,12,weatherlink.com 1.10,2013-06-17 21:13:00,
2013-06-17 17:28:00,72.4,65.0,29.79,NNE,19,7.0,16.0,77,0.03,,,0.03,33,weatherlink.com 1.10,2013-06-17 21:28:00,
2013-06-17 17:44:00,70.0,63.0,29.78,NNW,338,7.0,17.0,78,0.03,,,0.03,5,weatherlink.com 1.10,2013-06-17 21:44:00,
2013-06-17 17:59:00,68.9,65.0,29.83,NW,319,15.0,27.0,86,0.18,,,0.18,0,weatherlink.com 1.10,2013-06-17 21:59:00,
2013-06-17 18:14:00,65.8,63.0,29.84,WNW,302,2.0,23.0,89,0.39,,,0.40,5,weatherlink.com 1.10,2013-06-17 22:14:00,
2013-06-17 18:29:00,65.2,62.0,29.86,NW,322,0.0,10.0,90,0.37,,,0.40,7,weatherlink.com 1.10,2013-06-17 22:29:00,
2013-06-17 18:44:00,65.2,63.0,29.87,NW,309,0.0,3.0,91,0.40,,,0.43,0,weatherlink.com 1.10,2013-06-17 22:44:00,
2013-06-17 18:59:00,65.3,63.0,29.88,WNW,289,0.0,3.0,92,0.26,,,0.46,0,weatherlink.com 1.10,2013-06-17 22:59:00,
2013-06-17 19:14:00,65.2,63.0,29.88,SSW,208,3.0,7.0,92,0.09,,,0.49,9,weatherlink.com 1.10,2013-06-17 23:14:00,
2013-06-17 19:29:00,65.2,63.0,29.88,SSW,211,10.0,14.0,93,0.11,,,0.51,7,weatherlink.com 1.10,2013-06-17 23:29:00,
2013-06-17 19:44:00,65.1,63.0,29.89,SSW,197,5.0,13.0,93,0.08,,,0.51,7,weatherlink.com 1.10,2013-06-17 23:44:00,
2013-06-17 19:59:00,64.7,63.0,29.87,SSW,201,0.0,10.0,93,0.07,,,0.53,14,weatherlink.com 1.10,2013-06-17 23:59:00,
2013-06-17 20:14:00,64.5,63.0,29.86,SW,220,1.0,9.0,93,0.04,,,0.53,9,weatherlink.com 1.10,2013-06-18 00:14:00,
2013-06-17 20:29:00,64.3,62.0,29.86,SSW,211,2.0,7.0,93,0.02,,,0.53,0,weatherlink.com 1.10,2013-06-18 00:29:00,
2013-06-17 20:44:00,63.8,62.0,29.86,SSW,211,2.0,4.0,93,0.01,,,0.53,0,weatherlink.com 1.10,2013-06-18 00:44:00,
2013-06-17 20:59:00,63.7,62.0,29.87,SW,214,7.0,7.0,94,0.00,,,0.53,0,weatherlink.com 1.10,2013-06-18 00:59:00,
2013-06-17 21:14:00,63.9,62.0,29.88,SSW,213,3.0,7.0,94,0.00,,,0.53,0,weatherlink.com 1.10,2013-06-18 01:14:00,
2013-06-17 21:29:00,64.0,62.0,29.88,SW,221,5.0,8.0,94,0.00,,,0.53,0,weatherlink.com 1.10,2013-06-18 01:29:00,
2013-06-17 21:44:00,64.1,62.0,29.90,SW,230,5.0,9.0,94,0.00,,,0.53,0,weatherlink.com 1.10,2013-06-18 01:44:00,
2013-06-17 21:59:00,64.2,63.0,29.89,SW,236,9.0,12.0,94,0.00,,,0.53,0,weatherlink.com 1.10,2013-06-18 01:59:00,
2013-06-17 22:14:00,64.0,62.0,29.89,WSW,238,6.0,11.0,94,0.00,,,0.53,0,weatherlink.com 1.10,2013-06-18 02:14:00,
2013-06-17 22:29:00,63.6,62.0,29.89,WSW,246,8.0,11.0,94,0.00,,,0.53,0,weatherlink.com 1.10,2013-06-18 02:29:00,
2013-06-17 22:44:00,63.5,62.0,29.89,WSW,242,1.0,11.0,94,0.00,,,0.53,0,weatherlink.com 1.10,2013-06-18 02:44:00,
2013-06-17 22:59:00,63.3,62.0,29.88,WSW,245,3.0,10.0,94,0.00,,,0.53,0,weatherlink.com 1.10,2013-06-18 02:59:00,
2013-06-17 23:14:00,63.0,61.0,29.88,WSW,248,7.0,8.0,94,0.00,,,0.53,0,weatherlink.com 1.10,2013-06-18 03:14:00,
2013-06-17 23:29:00,62.7,61.0,29.89,SW,236,5.0,13.0,94,0.00,,,0.53,0,weatherlink.com 1.10,2013-06-18 03:29:00,
2013-06-17 23:44:00,63.0,61.0,29.88,SW,234,6.0,13.0,94,0.00,,,0.53,0,weatherlink.com 1.10,2013-06-18 03:44:00,
2013-06-17 23:59:00,63.1,61.0,29.89,WSW,245,4.0,12.0,94,0.00,,,0.00,0,weatherlink.com 1.10,2013-06-18 03:59:00,